FW4340 Weather Reports


Display with metric or nautical units.
time (UTC)temp
F
wind
direction
speed
MPH
gust
MPH
rain 1hr
in
rain 24hr
in
rain mn
in
humidity
%
barometer
mb
20260506231544 48 226 3.0 7.0 0.00 0.00 0.00 76 1011.8
20260506230052 48 205 3.0 4.0 0.00 0.00 0.00 75 1011.8
20260506224537 49 224 4.0 7.0 0.00 0.00 0.00 74 1011.8
20260506223037 49 194 8.0 11.0 0.00 0.00 0.00 72 1011.7
20260506221536 49 186 8.0 11.0 0.00 0.00 0.00 71 1011.5
20260506220037 50 197 6.0 12.0 0.00 0.00 0.00 72 1011.5
20260506214535 50 195 5.0 7.0 0.00 0.00 0.00 74 1011.6
20260506213035 50 181 5.0 6.0 0.00 0.00 0.00 75 1011.5
20260506211533 51 174 5.0 8.0 0.00 0.00 0.00 74 1011.7
20260506210048 51 126 6.0 8.0 0.00 0.00 0.00 74 1011.7
20260506204532 52 134 4.0 7.0 0.00 0.00 0.00 75 1011.7
20260506203030 52 90 3.0 8.0 0.00 0.00 0.00 76 1011.7
20260506201527 52 89 5.0 9.0 0.00 0.00 0.00 76 1011.7
20260506200026 52 101 7.0 11.0 0.00 0.00 0.00 75 1011.5
20260506194528 52 88 6.0 11.0 0.00 0.00 0.00 75 1011.4
20260506193034 52 91 8.0 10.0 0.00 0.00 0.00 75 1011.4
20260506191527 52 95 8.0 13.0 0.00 0.00 0.00 75 1011.3
20260506190029 52 89 10.0 12.0 0.00 0.00 0.00 75 1011.5
20260506184535 52 77 7.0 10.0 0.00 0.00 0.00 75 1011.4
20260506183024 53 73 7.0 11.0 0.00 0.00 0.00 73 1011.4
20260506181535 52 82 7.0 11.0 0.00 0.00 0.00 71 1011.4
20260506180025 53 57 7.0 11.0 0.00 0.00 0.00 73 1011.4
20260506174519 52 59 6.0 13.0 0.00 0.00 0.00 72 1011.4
20260506173121 52 55 9.0 13.0 0.00 0.00 0.00 71 1011.4
20260506171515 52 60 9.0 15.0 0.00 0.00 0.00 72 1011.4
20260506170024 52 57 11.0 13.0 0.00 0.00 0.00 71 1011.4
20260506164535 52 56 9.0 13.0 0.00 0.00 0.00 73 1011.4
20260506163014 52 64 10.0 13.0 0.00 0.00 0.00 72 1011.7
20260506161512 52 54 11.0 14.0 0.00 0.00 0.00 72 1011.6
20260506160011 52 56 12.0 14.0 0.00 0.00 0.00 70 1011.7
20260506154509 52 56 11.0 14.0 0.00 0.00 0.00 73 1011.7
20260506153008 52 50 11.0 15.0 0.00 0.00 0.00 72 1011.7
20260506151504 51 50 12.0 15.0 0.00 0.00 0.00 71 1011.8
20260506150002 51 55 12.0 14.0 0.00 0.00 0.00 72 1011.8
20260506144607 51 55 12.0 15.0 0.00 0.00 0.00 72 1011.9
20260506143100 51 52 12.0 15.0 0.00 0.00 0.00 72 1012.0
20260506141558 51 46 13.0 15.0 0.00 0.00 0.00 71 1012.2
20260506140056 51 54 13.0 16.0 0.00 0.00 0.00 73 1012.3
20260506134554 50 56 14.0 16.0 0.00 0.00 0.00 72 1012.5
20260506133107 50 52 14.0 16.0 0.00 0.00 0.00 75 1012.5
20260506131608 50 54 14.0 16.0 0.00 0.00 0.00 75 1012.7
20260506130051 49 46 13.0 16.0 0.00 0.00 0.00 75 1012.6
20260506124551 49 66 13.0 16.0 0.00 0.00 0.00 74 1012.8
20260506123050 49 51 14.0 17.0 0.00 0.00 0.00 76 1012.8
20260506121555 49 51 14.0 17.0 0.00 0.00 0.00 74 1012.8
20260506120058 49 60 14.0 17.0 0.00 0.00 0.00 74 1012.9
20260506114546 49 67 14.0 17.0 0.00 0.00 0.00 74 1013.0
20260506113046 49 53 13.0 17.0 0.00 0.00 0.00 75 1013.0
20260506111547 48 53 14.0 18.0 0.00 0.00 0.00 75 1013.3
20260506110054 49 54 13.0 18.0 0.00 0.00 0.00 76 1013.2
20260506104557 48 58 14.0 18.0 0.00 0.00 0.00 76 1013.1
20260506103046 48 61 13.0 18.0 0.00 0.00 0.00 76 1013.1
20260506101541 48 54 13.0 18.0 0.00 0.00 0.00 77 1013.2
20260506100046 48 54 12.0 19.0 0.00 0.00 0.00 74 1013.2
20260506094538 48 59 14.0 19.0 0.00 0.00 0.00 75 1013.3
20260506093036 48 56 12.0 17.0 0.00 0.00 0.00 75 1013.3
20260506091536 48 55 12.0 18.0 0.00 0.00 0.00 76 1013.2
20260506090033 48 48 12.0 17.0 0.00 0.00 0.00 78 1013.4
20260506084608 48 62 10.0 17.0 0.00 0.00 0.00 77 1013.4
20260506083034 49 83 10.0 14.0 0.00 0.00 0.00 77 1013.4
20260506081538 48 111 8.0 14.0 0.00 0.00 0.00 79 1013.4
20260506073025 47 103 10.0 13.0 0.00 0.00 0.00 81 1013.3
20260506071526 47 135 7.0 12.0 0.00 0.00 0.00 82 1013.3
20260506061521 45 131 7.0 9.0 0.00 0.00 0.00 82 1013.0
20260506044521 45 157 9.0 12.0 0.00 0.00 0.00 82 1012.7
20260506043017 45 152 7.0 10.0 0.00 0.00 0.00 82 1012.8
20260506041516 45 129 8.0 11.0 0.00 0.00 0.00 82 1012.8
20260506040014 45 127 8.0 10.0 0.00 0.00 0.00 82 1012.8
20260506034514 45 133 9.0 11.0 0.00 0.01 0.00 82 1012.9
20260506033013 45 135 7.0 10.0 0.00 0.01 0.00 82 1012.9
20260506031513 45 129 8.0 10.0 0.00 0.01 0.00 82 1012.9
20260506030010 46 139 8.0 12.0 0.00 0.01 0.00 82 1012.9
20260506024509 46 128 8.0 10.0 0.00 0.01 0.00 82 1013.0
20260506023009 46 133 7.0 10.0 0.00 0.01 0.00 82 1013.0
20260506021508 46 137 8.0 10.0 0.00 0.01 0.00 82 1012.9
20260506020007 46 127 7.0 10.0 0.00 0.01 0.00 81 1013.0
20260506014506 46 125 6.0 10.0 0.00 0.01 0.00 81 1012.9
20260506013004 46 113 8.0 12.0 0.00 0.01 0.00 81 1012.9
20260506011503 46 115 9.0 12.0 0.00 0.01 0.00 81 1013.1
20260506010002 46 119 8.0 12.0 0.00 0.01 0.00 80 1013.1
20260506004501 47 120 7.0 10.0 0.00 0.01 0.00 80 1013.2
20260506003002 47 118 9.0 12.0 0.00 0.01 0.00 80 1013.3
20260506001600 47 118 9.0 12.0 0.00 0.01 0.00 81 1013.2
20260506000100 47 121 9.0 11.0 0.00 0.01 0.00 82 1013.2
20260505234557 47 122 9.0 12.0 0.00 0.01 0.00 82 1013.2
20260505233104 47 152 7.0 10.0 0.00 0.01 0.00 83 1013.2